Hourly Weather Ayacucho

Today, 25 September, Friday

Time Temperature Precipitation Wind Pressure Humidity
00:00 +13°C° 0 mm 1 mps 543 mmHg 76%
01:00 +13°C° 0 mm 1 mps 542 mmHg 79%
02:00 +11°C° 0 mm 0 mps 542 mmHg 81%
03:00 +11°C° 0 mm 0 mps 542 mmHg 83%
04:00 +10°C° 0 mm 0 mps 541 mmHg 85%
05:00 +11°C° 0 mm 0 mps 542 mmHg 81%
06:00 +11°C° 0 mm 0 mps 542 mmHg 77%
07:00 +12°C° 0 mm 0 mps 543 mmHg 73%
08:00 +15°C° 0 mm 1 mps 544 mmHg 64%
09:00 +18°C° 0 mm 1 mps 544 mmHg 54%
10:00 +19°C° 0 mm 1 mps 545 mmHg 45%
11:00 +20°C° 0.1 mm 2 mps 545 mmHg 40%
12:00 +21°C° 0.1 mm 2 mps 545 mmHg 35%
13:00 +23°C° 0.1 mm 2 mps 545 mmHg 31%
14:00 +22°C° 0.1 mm 3 mps 544 mmHg 33%
15:00 +22°C° 0.1 mm 3 mps 544 mmHg 34%
16:00 +22°C° 0.1 mm 4 mps 544 mmHg 36%
17:00 +20°C° 0.1 mm 3 mps 544 mmHg 45%
18:00 +18°C° 0.1 mm 3 mps 543 mmHg 54%
19:00 +17°C° 0.1 mm 3 mps 543 mmHg 64%
20:00 +16°C° 0.1 mm 2 mps 543 mmHg 67%
21:00 +15°C° 0.1 mm 2 mps 543 mmHg 71%
22:00 +14°C° 0.1 mm 1 mps 543 mmHg 74%
23:00 +14°C° 0 mm 1 mps 542 mmHg 75%

Tomorrow, 26 September, Saturday

Time Temperature Precipitation Wind Pressure Humidity
00:00 +14°C° 0 mm 1 mps 542 mmHg 76%
01:00 +12°C° 0 mm 0 mps 541 mmHg 77%
02:00 +12°C° 0 mm 0 mps 541 mmHg 78%
03:00 +11°C° 0 mm 0 mps 541 mmHg 79%
04:00 +11°C° 0 mm 0 mps 540 mmHg 80%
05:00 +12°C° 0 mm 0 mps 541 mmHg 77%
06:00 +12°C° 0 mm 0 mps 541 mmHg 74%
07:00 +13°C° 0 mm 0 mps 542 mmHg 71%
08:00 +15°C° 0.1 mm 0 mps 543 mmHg 64%
09:00 +18°C° 0.1 mm 1 mps 543 mmHg 58%
10:00 +20°C° 0.1 mm 1 mps 544 mmHg 51%
11:00 +21°C° 0.4 mm 1 mps 544 mmHg 47%
12:00 +21°C° 0.4 mm 2 mps 543 mmHg 43%
13:00 +23°C° 0.4 mm 2 mps 543 mmHg 40%
14:00 +23°C° 0.4 mm 2 mps 543 mmHg 42%
15:00 +22°C° 0.4 mm 3 mps 542 mmHg 44%
16:00 +21°C° 0.4 mm 4 mps 542 mmHg 46%
17:00 +19°C° 1.8 mm 3 mps 541 mmHg 56%
18:00 +17°C° 1.8 mm 3 mps 541 mmHg 67%
19:00 +15°C° 1.8 mm 2 mps 540 mmHg 77%
20:00 +14°C° 3.1 mm 2 mps 540 mmHg 79%
21:00 +13°C° 3.1 mm 2 mps 540 mmHg 82%
22:00 +12°C° 3.1 mm 1 mps 540 mmHg 85%
23:00 +12°C° 0.1 mm 1 mps 540 mmHg 83%

Day after tomorrow, 27 September, Sunday

Time Temperature Precipitation Wind Pressure Humidity
00:00 +13°C° 0.1 mm 1 mps 540 mmHg 82%
01:00 +13°C° 0.1 mm 1 mps 540 mmHg 80%
02:00 +12°C° 0 mm 1 mps 539 mmHg 82%
03:00 +11°C° 0 mm 0 mps 539 mmHg 84%
04:00 +11°C° 0 mm 0 mps 538 mmHg 86%
05:00 +11°C° 0 mm 0 mps 539 mmHg 82%
06:00 +12°C° 0 mm 0 mps 539 mmHg 78%
07:00 +12°C° 0 mm 0 mps 540 mmHg 74%
08:00 +14°C° 0 mm 0 mps 541 mmHg 67%
09:00 +18°C° 0 mm 1 mps 541 mmHg 61%
10:00 +19°C° 0 mm 1 mps 542 mmHg 54%
11:00 +19°C° 0.4 mm 2 mps 542 mmHg 50%
12:00 +20°C° 0.4 mm 2 mps 542 mmHg 47%
13:00 +21°C° 0.4 mm 2 mps 542 mmHg 43%
14:00 +21°C° 0.6 mm 3 mps 541 mmHg 46%
15:00 +21°C° 0.6 mm 4 mps 541 mmHg 48%
16:00 +20°C° 0.6 mm 4 mps 541 mmHg 50%
17:00 +19°C° 1.1 mm 3 mps 541 mmHg 56%
18:00 +17°C° 1.1 mm 3 mps 541 mmHg 63%
19:00 +16°C° 1.1 mm 2 mps 541 mmHg 69%
20:00 +15°C° 0.7 mm 2 mps 541 mmHg 71%
21:00 +15°C° 0.7 mm 1 mps 541 mmHg 73%
22:00 +14°C° 0.7 mm 1 mps 541 mmHg 76%
23:00 +14°C° 0.1 mm 1 mps 541 mmHg 75%

28 September, Monday

Time Temperature Precipitation Wind Pressure Humidity
00:00 +14°C° 0.1 mm 1 mps 540 mmHg 74%
01:00 +14°C° 0.1 mm 1 mps 540 mmHg 73%
02:00 +14°C° 0.1 mm 1 mps 540 mmHg 74%
03:00 +13°C° 0.1 mm 1 mps 540 mmHg 76%
04:00 +13°C° 0.1 mm 1 mps 539 mmHg 77%
05:00 +13°C° 0.1 mm 1 mps 540 mmHg 77%
06:00 +13°C° 0.1 mm 1 mps 540 mmHg 77%
07:00 +12°C° 0.1 mm 0 mps 540 mmHg 77%
08:00 +15°C° 0.3 mm 1 mps 541 mmHg 72%
09:00 +16°C° 0.3 mm 1 mps 541 mmHg 68%
10:00 +18°C° 0.3 mm 1 mps 542 mmHg 63%
11:00 +18°C° 0.7 mm 1 mps 542 mmHg 61%
12:00 +18°C° 0.7 mm 2 mps 541 mmHg 59%
13:00 +18°C° 0.7 mm 2 mps 541 mmHg 57%
14:00 +18°C° 0.6 mm 2 mps 541 mmHg 58%
15:00 +18°C° 0.6 mm 2 mps 541 mmHg 58%
16:00 +18°C° 0.6 mm 2 mps 540 mmHg 59%
17:00 +17°C° 0.5 mm 2 mps 540 mmHg 64%
18:00 +16°C° 0.5 mm 2 mps 540 mmHg 68%
19:00 +15°C° 0.5 mm 1 mps 540 mmHg 73%
20:00 +15°C° 0.2 mm 2 mps 540 mmHg 73%
21:00 +14°C° 0.2 mm 2 mps 541 mmHg 73%
22:00 +14°C° 0.2 mm 2 mps 541 mmHg 73%
23:00 +14°C° 0.4 mm 2 mps 541 mmHg 74%

29 September, Tuesday

Time Temperature Precipitation Wind Pressure Humidity
00:00 +13°C° 0.4 mm 2 mps 540 mmHg 74%
01:00 +13°C° 0.4 mm 1 mps 540 mmHg 75%
02:00 +13°C° 0.4 mm 1 mps 540 mmHg 77%
03:00 +12°C° 0.4 mm 1 mps 539 mmHg 80%
04:00 +11°C° 0.4 mm 0 mps 539 mmHg 82%
05:00 +12°C° 0.2 mm 1 mps 540 mmHg 81%
06:00 +12°C° 0.2 mm 1 mps 540 mmHg 81%
07:00 +12°C° 0.2 mm 1 mps 540 mmHg 80%
08:00 +13°C° 0.1 mm 1 mps 541 mmHg 75%
09:00 +14°C° 0.1 mm 1 mps 541 mmHg 71%
10:00 +15°C° 0.1 mm 2 mps 542 mmHg 67%
11:00 +17°C° 0.2 mm 2 mps 542 mmHg 62%
12:00 +18°C° 0.2 mm 2 mps 542 mmHg 57%
13:00 +19°C° 0.2 mm 2 mps 542 mmHg 53%
14:00 +19°C° 0.2 mm 2 mps 542 mmHg 52%
15:00 +19°C° 0.2 mm 3 mps 542 mmHg 52%
16:00 +19°C° 0.2 mm 3 mps 542 mmHg 52%
17:00 +18°C° 0.7 mm 2 mps 541 mmHg 59%
18:00 +16°C° 0.7 mm 2 mps 541 mmHg 66%
19:00 +15°C° 0.7 mm 2 mps 541 mmHg 73%
20:00 +14°C° 1.3 mm 2 mps 541 mmHg 75%
21:00 +13°C° 1.3 mm 2 mps 541 mmHg 77%
22:00 +11°C° 1.3 mm 3 mps 541 mmHg 79%
23:00 +12°C° 0.6 mm 2 mps 541 mmHg 80%

30 September, Wednesday

Time Temperature Precipitation Wind Pressure Humidity
00:00 +12°C° 0.6 mm 2 mps 540 mmHg 80%
01:00 +12°C° 0.6 mm 2 mps 540 mmHg 81%
02:00 +12°C° 0 mm 1 mps 540 mmHg 80%
03:00 +12°C° 0 mm 1 mps 540 mmHg 79%
04:00 +11°C° 0 mm 0 mps 540 mmHg 78%
05:00 +11°C° 0 mm 0 mps 540 mmHg 76%
06:00 +12°C° 0 mm 0 mps 541 mmHg 75%
07:00 +12°C° 0 mm 0 mps 541 mmHg 73%
08:00 +14°C° 0 mm 1 mps 542 mmHg 69%
09:00 +15°C° 0.1 mm 1 mps 542 mmHg 64%
10:00 +18°C° 0.1 mm 1 mps 543 mmHg 60%
11:00 +17°C° 0.3 mm 2 mps 543 mmHg 60%
12:00 +18°C° 0.3 mm 3 mps 543 mmHg 59%
13:00 +18°C° 0.3 mm 3 mps 542 mmHg 59%
14:00 +18°C° 0.4 mm 3 mps 542 mmHg 59%
15:00 +18°C° 0.4 mm 3 mps 542 mmHg 59%
16:00 +18°C° 0.4 mm 2 mps 541 mmHg 59%
17:00 +17°C° 0.2 mm 2 mps 541 mmHg 64%
18:00 +16°C° 0.2 mm 2 mps 541 mmHg 69%
19:00 +15°C° 0.2 mm 2 mps 541 mmHg 74%
20:00 +15°C° 0.1 mm 2 mps 542 mmHg 76%
21:00 +14°C° 0.1 mm 1 mps 542 mmHg 78%
22:00 +14°C° 0.1 mm 1 mps 542 mmHg 80%
23:00 +14°C° 0.1 mm 1 mps 541 mmHg 81%
Show more